Morristown, NJ

5:36 PM EDT on October 20, 2017 (GMT -0400)
Morristown Municipal

Weather History for KMMU - April, 2014

Change the Weather History Date:

Friday, April 25, 2014

  Actual Average Record
Temperature  
Mean Temperature 48 °F -  
Max Temperature 62 °F 62 °F 86 °F (1939)
Min Temperature 33 °F 41 °F 19 °F (1936)
Degree Days  
Heating Degree Days 18    
Moisture  
Dew Point 26 °F    
Average Humidity 48    
Maximum Humidity 82    
Minimum Humidity 16    
Precipitation  
Precipitation 0.00 in - - ()
Sea Level Pressure  
Sea Level Pressure 29.96 in    
Wind  
Wind Speed 4 mph (East)    
Max Wind Speed 15 mph    
Max Gust Speed 22 mph    
Visibility 10 miles    
Events Rain    
Averages and records for this station are not official NWS values.
T = Trace of Precipitation, MM = Missing Value Source: NWS Daily Summary

Daily Weather History Graph

Daily Weather History Graph

Search for Another Location

Airport or City:

Trip Planner

Search our weather history database for the weather conditions in past years. The results will help you decide how hot, cold, wet, or windy it might be!

Date:

Astronomy

Apr. 25, 2014 Rise Set
Actual Time 6:04 AM EDT 7:47 PM EDT
Civil Twilight 5:34 AM EDT 8:16 PM EDT
Nautical Twilight 4:59 AM EDT 8:52 PM EDT
Astronomical Twilight 4:21 AM EDT 9:30 PM EDT
Moon 3:52 AM EDT (4/25) 4:05 PM EDT (4/25)
Length of Visible Light 14h 41m
Length of Day
13h 43m
Waning Crescent, 15% of the Moon is Illuminated
Apr 25
Waning Crescent
Apr 29
New
May 6
First Quarter
May 14
Full
May 21
Last Quarter

Hourly Weather History & Observations

Time (EDT) Temp. Windchill Dew Point Humidity Pressure Visibility Wind Dir Wind Speed Gust Speed Precip Events Conditions
12:15 AM 50.0 °F - 15.8 °F 26% 30.03 in 10.0 mi NNW 5.8 mph - N/A   Clear
12:35 AM 50.0 °F - 14.0 °F 24% 30.03 in 10.0 mi NNW 8.1 mph 16.1 mph N/A   Clear
12:55 AM 50.0 °F - 14.0 °F 24% 30.03 in 10.0 mi Calm Calm - N/A   Clear
1:15 AM 48.2 °F - 15.8 °F 27% 30.04 in 10.0 mi Calm Calm - N/A   Clear
1:35 AM 48.2 °F - 15.8 °F 27% 30.04 in 10.0 mi NNW 6.9 mph - N/A   Clear
1:55 AM 48.2 °F - 15.8 °F 27% 30.04 in 10.0 mi NW 4.6 mph - N/A   Clear
2:15 AM 44.6 °F - 19.4 °F 37% 30.04 in 10.0 mi Calm Calm - N/A   Clear
2:35 AM 44.6 °F 43.1 °F 17.6 °F 34% 30.03 in 10.0 mi North 3.5 mph - N/A   Clear
2:55 AM 39.2 °F 35.0 °F 23.0 °F 52% 30.02 in 10.0 mi NNE 5.8 mph - N/A   Clear
3:15 AM 44.6 °F - 19.4 °F 37% 30.02 in 10.0 mi Calm Calm - N/A   Clear
3:35 AM 39.2 °F 37.0 °F 23.0 °F 52% 30.01 in 10.0 mi ENE 3.5 mph - N/A   Clear
3:55 AM 39.2 °F 37.0 °F 23.0 °F 52% 30.00 in 10.0 mi NE 3.5 mph - N/A   Clear
4:15 AM 39.2 °F - 23.0 °F 52% 30.01 in 10.0 mi Calm Calm - N/A   Clear
4:35 AM 35.6 °F - 24.8 °F 65% 30.01 in 10.0 mi Calm Calm - N/A   Clear
4:55 AM 39.2 °F - 23.0 °F 52% 30.01 in 10.0 mi Calm Calm - N/A   Clear
5:15 AM 35.6 °F - 24.8 °F 65% 30.02 in 10.0 mi Calm Calm - N/A   Clear
5:35 AM 33.8 °F - 28.4 °F 81% 30.04 in 10.0 mi Calm Calm - N/A   Clear
5:55 AM 33.8 °F - 26.6 °F 75% 30.03 in 10.0 mi Calm Calm - N/A   Clear
6:15 AM 35.6 °F - 26.6 °F 70% 30.04 in 10.0 mi Calm Calm - N/A   Clear
6:35 AM 35.6 °F - 28.4 °F 75% 30.05 in 10.0 mi Calm Calm - N/A   Clear
6:45 AM 33.8 °F - 26.6 °F 75% 30.05 in 10.0 mi Calm Calm - N/A   Clear
7:45 AM 42.8 °F - 37.4 °F 81% 30.06 in 10.0 mi Calm Calm - N/A   Clear
8:45 AM 50.0 °F - 21.2 °F 32% 30.06 in 10.0 mi Calm Calm - N/A   Mostly Cloudy
9:45 AM 53.6 °F - 19.4 °F 26% 30.04 in 10.0 mi Calm Calm - N/A   Mostly Cloudy
10:45 AM 55.4 °F - 17.6 °F 23% 30.02 in 10.0 mi SSW 9.2 mph - N/A   Scattered Clouds
11:45 AM 59.0 °F - 23.0 °F 25% 30.01 in 10.0 mi SE 8.1 mph - N/A   Mostly Cloudy
12:45 PM 60.8 °F - 24.8 °F 25% 29.97 in 10.0 mi SSE 9.2 mph - N/A   Mostly Cloudy
1:45 PM 62.6 °F - 24.8 °F 24% 29.95 in 10.0 mi SE 9.2 mph - N/A   Scattered Clouds
2:45 PM 62.6 °F - 28.4 °F 27% 29.92 in 10.0 mi SSE 8.1 mph 20.7 mph N/A   Scattered Clouds
3:45 PM 60.8 °F - 28.4 °F 29% 29.88 in 10.0 mi SSE 15.0 mph 21.9 mph N/A   Mostly Cloudy
4:45 PM 57.2 °F - 28.4 °F 33% 29.86 in 10.0 mi South 13.8 mph 21.9 mph N/A   Mostly Cloudy
5:45 PM 57.2 °F - 10.4 °F 16% 29.85 in 10.0 mi South 11.5 mph - N/A   Mostly Cloudy
6:45 PM 55.4 °F - 30.2 °F 38% 29.84 in 10.0 mi SSE 9.2 mph - N/A   Mostly Cloudy
8:45 PM 50.0 °F - 37.4 °F 62% 29.84 in 10.0 mi SE 5.8 mph - N/A   Overcast
9:45 PM 48.2 °F - 42.8 °F 82% 29.82 in 10.0 mi Calm Calm - N/A   Overcast
10:15 PM 50.0 °F - 44.6 °F 82% 29.82 in 10.0 mi Calm Calm - N/A Rain Light Rain
10:35 PM 50.0 °F - 44.6 °F 82% 29.81 in 10.0 mi Calm Calm - N/A Rain Light Rain
10:55 PM 50.0 °F - 41.0 °F 71% 29.79 in 10.0 mi East 3.5 mph - N/A   Light Drizzle
11:15 PM 51.8 °F - 37.4 °F 58% 29.79 in 10.0 mi ENE 3.5 mph - N/A   Overcast
11:35 PM 50.0 °F - 41.0 °F 71% 29.78 in 10.0 mi East 4.6 mph - N/A   Overcast
11:55 PM 51.8 °F - 41.0 °F 67% 29.78 in 10.0 mi Calm Calm - N/A   Overcast